EW9274 Weather Reports


Display with metric or nautical units.
time (UTC)temp
F
wind
direction
speed
MPH
gust
MPH
rain 1hr
in
rain 24hr
in
rain mn
in
humidity
%
barometer
mb
20260505140506 51 225 7.0 17.0 0.00 0.00 0.00 40 1008.6
20260505125008 47 227 3.0 9.0 0.00 0.00 0.00 47 1008.6
20260505124520 47 240 4.0 9.0 0.00 0.00 0.00 47 1008.7
20260505124008 47 150 4.0 9.0 0.00 0.00 0.00 47 1008.7
20260505123507 47 248 2.0 7.0 0.00 0.00 0.00 46 1008.2
20260505123021 47 272 1.0 11.0 0.00 0.00 0.00 47 1007.9
20260505122507 47 275 6.0 11.0 0.00 0.00 0.00 46 1008.3
20260505122007 47 261 3.0 5.0 0.00 0.00 0.00 48 1008.6
20260505121523 46 206 2.0 5.0 0.00 0.00 0.00 49 1008.9
20260505121006 46 219 3.0 5.0 0.00 0.00 0.00 48 1008.9
20260505120508 46 206 2.0 6.0 0.00 0.00 0.00 48 1008.9
20260505120021 46 207 1.0 6.0 0.00 0.00 0.00 47 1008.2
20260505115508 46 257 1.0 3.0 0.00 0.00 0.00 46 1007.7
20260505115006 46 254 0.0 3.0 0.00 0.00 0.00 47 1007.4
20260505114522 46 269 1.0 5.0 0.00 0.00 0.00 46 1007.2
20260505114007 45 249 2.0 5.0 0.00 0.00 0.00 46 1007.2
20260505113507 45 306 1.0 3.0 0.00 0.00 0.00 46 1006.9
20260505113023 45 317 0.0 3.0 0.00 0.00 0.00 46 1006.7
20260505112505 46 334 0.0 2.0 0.00 0.00 0.00 46 1006.9
20260505112007 46 298 0.0 3.0 0.00 0.00 0.00 46 1007.1
20260505111524 45 298 0.0 3.0 0.00 0.00 0.00 46 1007.2
20260505111006 45 229 0.0 3.0 0.00 0.00 0.00 45 1007.1
20260505110503 45 257 1.0 3.0 0.00 0.00 0.00 45 1007.3
20260505102005 46 330 3.0 8.0 0.00 0.00 0.00 42 1006.5
20260505101522 46 340 1.0 9.0 0.00 0.00 0.00 41 1006.5
20260505101004 46 281 5.0 10.0 0.00 0.00 0.00 41 1006.5
20260505100503 47 306 5.0 10.0 0.00 0.00 0.00 41 1006.6
20260505100024 47 207 1.0 9.0 0.00 0.00 0.00 41 1006.2
20260505095507 47 326 2.0 8.0 0.00 0.00 0.00 41 1006.0
20260505095002 47 317 1.0 9.0 0.00 0.00 0.00 41 1006.2
20260505094521 47 267 3.0 10.0 0.00 0.00 0.00 41 1006.3
20260505094003 47 343 3.0 11.0 0.00 0.00 0.00 41 1006.2
20260505093503 47 339 2.0 11.0 0.00 0.00 0.00 41 1006.3
20260505093030 47 267 5.0 11.0 0.00 0.00 0.00 42 1006.3
20260505092504 47 277 5.0 11.0 0.00 0.00 0.00 43 1006.4
20260505092004 47 298 4.0 11.0 0.00 0.00 0.00 44 1006.5
20260505091528 47 144 5.0 9.0 0.00 0.00 0.00 44 1006.3
20260505091007 47 324 2.0 11.0 0.00 0.00 0.00 44 1006.1
20260505090503 47 251 4.0 11.0 0.00 0.00 0.00 44 1006.0
20260505090024 47 294 3.0 10.0 0.00 0.00 0.00 44 1005.9
20260505085504 47 218 1.0 9.0 0.00 0.00 0.00 44 1005.6
20260505085004 47 305 4.0 9.0 0.00 0.00 0.00 43 1005.6
20260505084528 47 247 3.0 9.0 0.00 0.00 0.00 43 1005.6
20260505084004 48 313 1.0 10.0 0.00 0.00 0.00 44 1005.5
20260505083505 48 54 3.0 10.0 0.00 0.00 0.00 44 1005.5
20260505083028 48 326 5.0 11.0 0.00 0.00 0.00 44 1005.4
20260505082503 48 321 4.0 11.0 0.00 0.00 0.00 44 1005.2
20260505082007 48 294 4.0 10.0 0.00 0.00 0.00 44 1005.0
20260505081530 48 9 4.0 9.0 0.00 0.00 0.00 44 1004.9
20260505081007 48 249 5.0 11.0 0.00 0.00 0.00 44 1004.9
20260505080507 49 15 4.0 11.0 0.00 0.00 0.00 45 1004.7
20260505080030 49 48 5.0 11.0 0.00 0.00 0.00 45 1004.5
20260505075505 49 336 4.0 11.0 0.00 0.00 0.00 45 1004.3
20260505075008 49 327 3.0 11.0 0.00 0.00 0.00 45 1004.2
20260505074503 49 61 3.0 12.0 0.00 0.00 0.00 45 1004.0
20260505074004 50 307 4.0 12.0 0.00 0.00 0.00 45 1004.3
20260505073508 50 309 4.0 17.0 0.00 0.00 0.00 45 1004.2
20260505073007 50 331 4.0 17.0 0.00 0.00 0.00 46 1004.2
20260505072507 50 317 2.0 14.0 0.00 0.00 0.00 47 1004.2
20260505072005 51 344 6.0 14.0 0.00 0.00 0.00 47 1004.1
20260505071510 51 346 3.0 12.0 0.00 0.00 0.00 47 1004.0
20260505071007 51 325 4.0 16.0 0.00 0.00 0.00 47 1004.0
20260505070509 51 316 8.0 16.0 0.00 0.00 0.00 46 1003.9
20260505070010 52 360 6.0 12.0 0.00 0.00 0.00 47 1003.9
20260505065508 52 267 2.0 9.0 0.00 0.00 0.00 46 1003.8
20260505065009 52 37 2.0 9.0 0.00 0.00 0.00 46 1003.5
20260505064511 52 352 4.0 14.0 0.00 0.00 0.00 46 1003.4
20260505064006 52 327 2.0 14.0 0.00 0.00 0.00 46 1003.2
20260505063506 53 119 3.0 10.0 0.00 0.00 0.00 46 1003.2
20260505063014 53 160 2.0 10.0 0.00 0.00 0.00 46 1003.0
20260505062510 53 315 5.0 12.0 0.00 0.00 0.00 45 1003.0
20260505062012 53 333 5.0 12.0 0.00 0.00 0.00 45 1003.1
20260505061515 54 313 2.0 12.0 0.00 0.00 0.00 44 1003.1
20260505061013 54 333 6.0 13.0 0.00 0.00 0.00 44 1003.1
20260505060510 54 317 5.0 13.0 0.00 0.00 0.00 43 1003.1
20260505060025 55 321 4.0 12.0 0.00 0.00 0.00 43 1003.2
20260505055510 55 9 4.0 13.0 0.00 0.00 0.00 43 1003.1
20260505055013 55 293 5.0 16.0 0.00 0.00 0.00 43 1003.0
20260505054531 56 290 4.0 16.0 0.00 0.00 0.00 43 1002.9
20260505054012 56 9 3.0 11.0 0.00 0.00 0.00 42 1002.8
20260505053511 56 308 3.0 13.0 0.00 0.00 0.00 41 1002.6
20260505053017 57 311 2.0 13.0 0.00 0.00 0.00 40 1002.6
20260505052508 57 269 2.0 14.0 0.00 0.00 0.00 40 1002.5
20260505052015 57 162 6.0 14.0 0.00 0.00 0.00 39 1002.2
20260505051518 58 336 4.0 12.0 0.00 0.00 0.00 38 1002.1
20260505051009 58 317 3.0 12.0 0.00 0.00 0.00 38 1002.1
20260505050513 58 304 3.0 10.0 0.00 0.00 0.00 37 1001.8
20260505041524 61 351 7.0 12.0 0.00 0.00 0.00 32 1001.0
20260505041009 61 320 3.0 14.0 0.00 0.00 0.00 32 1001.0
20260505040506 61 258 6.0 14.0 0.00 0.00 0.00 31 1001.0
20260505040026 61 274 6.0 19.0 0.00 0.00 0.00 31 1000.9
20260505035511 62 228 5.0 19.0 0.00 0.00 0.00 31 1000.9
20260505035005 62 290 5.0 16.0 0.00 0.00 0.00 31 1000.8
20260505034527 62 225 7.0 15.0 0.00 0.00 0.00 31 1000.8
20260505034008 62 252 9.0 15.0 0.00 0.00 0.00 30 1000.9
20260505033506 62 242 6.0 15.0 0.00 0.00 0.00 30 1000.9
20260505033035 62 13 6.0 15.0 0.00 0.00 0.00 30 1001.2
20260505032508 63 263 7.0 15.0 0.00 0.00 0.00 30 1001.3
20260505032009 63 240 8.0 12.0 0.00 0.00 0.00 29 1001.2
20260505031526 63 253 6.0 12.0 0.00 0.00 0.00 29 1001.1
20260505031010 63 245 6.0 16.0 0.00 0.00 0.00 29 1000.9
20260505030506 63 192 5.0 16.0 0.00 0.00 0.00 29 1000.5
20260505030029 64 253 8.0 16.0 0.00 0.00 0.00 29 1000.1
20260505025509 64 217 5.0 13.0 0.00 0.00 0.00 29 999.8
20260505025006 64 246 7.0 16.0 0.00 0.00 0.00 28 999.8
20260505024530 64 204 10.0 17.0 0.00 0.00 0.00 28 999.8
20260505024009 64 279 5.0 17.0 0.00 0.00 0.00 29 999.9
20260505023505 64 313 7.0 14.0 0.00 0.00 0.00 29 999.8
20260505023029 65 159 7.0 14.0 0.00 0.00 0.00 30 999.8
20260505022513 65 277 7.0 20.0 0.00 0.00 0.00 31 1000.0
20260505022008 65 238 7.0 20.0 0.00 0.00 0.00 31 999.8
20260505021529 66 286 6.0 17.0 0.00 0.00 0.00 31 999.6
20260505021007 66 238 7.0 18.0 0.00 0.00 0.00 31 999.6
20260505020506 66 217 5.0 18.0 0.00 0.00 0.00 31 999.6
20260505020011 67 294 4.0 26.0 0.00 0.00 0.00 31 999.5
20260505015506 67 92 9.0 26.0 0.00 0.00 0.00 31 999.4
20260505015003 68 274 9.0 19.0 0.00 0.00 0.00 32 999.2
20260505014512 68 258 6.0 15.0 0.00 0.00 0.00 35 998.9
20260505014005 68 277 4.0 7.0 0.00 0.00 0.00 36 998.6
20260505013459 68 297 1.0 10.0 0.00 0.00 0.00 36 998.4
20260505013009 69 320 3.0 10.0 0.00 0.00 0.00 36 998.2
20260505012507 69 331 4.0 14.0 0.00 0.00 0.00 36 997.9
20260505012004 69 282 5.0 14.0 0.00 0.00 0.00 36 997.6
20260505011519 70 17 6.0 14.0 0.00 0.00 0.00 36 997.4
20260505011005 70 275 1.0 9.0 0.00 0.00 0.00 36 997.2
20260505010503 70 298 3.0 14.0 0.00 0.00 0.00 36 997.1
20260505010015 71 107 4.0 16.0 0.00 0.00 0.00 35 997.1
20260505005507 71 280 8.0 14.0 0.00 0.00 0.00 35 997.0
20260505005004 71 34 1.0 11.0 0.00 0.00 0.00 36 997.0
20260505004529 72 276 5.0 11.0 0.00 0.00 0.00 36 996.9
20260505004008 72 280 4.0 15.0 0.00 0.00 0.00 36 996.5
20260505003505 73 276 7.0 15.0 0.00 0.00 0.00 35 996.4
20260505003013 73 12 6.0 17.0 0.00 0.00 0.00 36 996.2
20260505002507 74 334 5.0 18.0 0.00 0.00 0.00 35 996.1
20260505002004 75 317 7.0 18.0 0.00 0.00 0.00 33 996.0
20260505001520 75 238 7.0 13.0 0.00 0.00 0.00 32 995.7
20260505001006 75 182 5.0 11.0 0.00 0.00 0.00 33 995.6
20260505000507 75 215 6.0 12.0 0.00 0.00 0.00 32 995.6
20260505000034 75 271 3.0 12.0 0.00 0.00 0.00 33 995.5
20260504235507 75 252 2.0 10.0 0.00 0.00 0.00 33 995.5
20260504235004 76 277 3.0 12.0 0.00 0.00 0.00 32 995.5
20260504234536 76 262 3.0 15.0 0.00 0.00 0.00 32 995.6
20260504234009 76 150 5.0 14.0 0.00 0.00 0.00 31 995.7
20260504233505 76 269 6.0 19.0 0.00 0.00 0.00 31 995.8
20260504233031 76 226 9.0 19.0 0.00 0.00 0.00 30 995.8
20260504232510 77 92 8.0 23.0 0.00 0.00 0.00 30 995.9
20260504232005 77 230 10.0 30.0 0.00 0.00 0.00 30 995.9
20260504231533 78 209 13.0 30.0 0.00 0.00 0.00 29 996.0
20260504231008 78 307 12.0 28.0 0.00 0.00 0.00 30 995.9
20260504230503 79 239 10.0 28.0 0.00 0.00 0.00 29 995.9
20260504230024 79 230 11.0 18.0 0.00 0.00 0.00 29 995.9
20260504225507 78 260 6.0 22.0 0.00 0.00 0.00 30 995.9
20260504225006 78 265 5.0 23.0 0.00 0.00 0.00 30 996.0
20260504224532 78 219 13.0 23.0 0.00 0.00 0.00 29 996.1
20260504224003 78 248 8.0 25.0 0.00 0.00 0.00 30 996.1
20260504223504 78 251 10.0 26.0 0.00 0.00 0.00 29 996.0
20260504223022 78 257 9.0 26.0 0.00 0.00 0.00 29 996.1
20260504222502 79 180 11.0 26.0 0.00 0.00 0.00 29 996.1
20260504222007 79 195 9.0 22.0 0.00 0.00 0.00 29 996.0
20260504221530 78 244 9.0 20.0 0.00 0.00 0.00 30 996.0
20260504221003 78 297 8.0 31.0 0.00 0.00 0.00 29 996.1
20260504220509 79 240 15.0 31.0 0.00 0.00 0.00 28 996.1
20260504220026 80 229 14.0 24.0 0.00 0.00 0.00 27 996.2
20260504215503 80 241 9.0 24.0 0.00 0.00 0.00 28 996.1
20260504215009 80 263 9.0 25.0 0.00 0.00 0.00 28 996.2
20260504214534 79 296 15.0 25.0 0.00 0.00 0.00 27 996.3
20260504214004 80 173 10.0 22.0 0.00 0.00 0.00 27 996.4
20260504213511 80 237 10.0 23.0 0.00 0.00 0.00 27 996.3
20260504213030 80 227 8.0 23.0 0.00 0.00 0.00 26 996.4
20260504212515 81 246 7.0 23.0 0.00 0.00 0.00 26 996.4
20260504212010 80 246 10.0 25.0 0.00 0.00 0.00 26 996.4
20260504211530 79 244 10.0 25.0 0.00 0.00 0.00 27 996.6
20260504211006 80 182 8.0 25.0 0.00 0.00 0.00 27 996.8
20260504210513 79 212 12.0 25.0 0.00 0.00 0.00 26 996.8
20260504210027 79 165 13.0 26.0 0.00 0.00 0.00 26 996.8
20260504205503 79 217 11.0 26.0 0.00 0.00 0.00 27 996.8
20260504205008 79 225 13.0 26.0 0.00 0.00 0.00 26 996.8
20260504204604 80 173 8.0 18.0 0.00 0.00 0.00 27 996.8
20260504204013 80 276 7.0 20.0 0.00 0.00 0.00 27 996.9
20260504203509 79 194 10.0 27.0 0.00 0.00 0.00 26 996.9
20260504203030 80 173 12.0 27.0 0.00 0.00 0.00 26 996.9
20260504202509 79 194 9.0 27.0 0.00 0.00 0.00 27 996.9
20260504202014 79 273 16.0 28.0 0.00 0.00 0.00 28 997.0
20260504201531 78 235 6.0 28.0 0.00 0.00 0.00 27 997.1
20260504201008 79 265 18.0 31.0 0.00 0.00 0.00 26 997.3
20260504200512 79 126 9.0 31.0 0.00 0.00 0.00 27 997.3
20260504200016 79 244 17.0 24.0 0.00 0.00 0.00 26 997.4
20260504195509 79 276 14.0 26.0 0.00 0.00 0.00 27 997.4
20260504195010 79 304 14.0 27.0 0.00 0.00 0.00 26 997.5
20260504194514 78 189 12.0 32.0 0.00 0.00 0.00 27 997.4
20260504194006 79 256 12.0 32.0 0.00 0.00 0.00 26 997.5
20260504193510 78 219 11.0 24.0 0.00 0.00 0.00 26 997.6
20260504193022 78 222 9.0 30.0 0.00 0.00 0.00 27 997.6
20260504192511 78 215 9.0 30.0 0.00 0.00 0.00 27 997.7
20260504192014 78 245 9.0 24.0 0.00 0.00 0.00 26 997.7
20260504191529 78 342 10.0 25.0 0.00 0.00 0.00 27 997.6
20260504191008 77 170 13.0 25.0 0.00 0.00 0.00 26 997.7
20260504190509 77 253 11.0 22.0 0.00 0.00 0.00 26 997.8
20260504190035 77 235 10.0 23.0 0.00 0.00 0.00 26 997.8
20260504185511 78 223 6.0 23.0 0.00 0.00 0.00 27 997.7
20260504185012 78 192 6.0 26.0 0.00 0.00 0.00 26 997.8
20260504184520 77 217 12.0 26.0 0.00 0.00 0.00 26 997.9
20260504184012 77 262 9.0 24.0 0.00 0.00 0.00 27 997.8
20260504183514 77 105 10.0 24.0 0.00 0.00 0.00 27 997.9
20260504183022 77 219 8.0 21.0 0.00 0.00 0.00 27 997.9
20260504182509 77 248 11.0 20.0 0.00 0.00 0.00 27 998.0
20260504182013 78 236 7.0 22.0 0.00 0.00 0.00 26 998.1
20260504181530 77 247 12.0 24.0 0.00 0.00 0.00 26 998.0
20260504181009 78 236 15.0 24.0 0.00 0.00 0.00 26 998.1
20260504180514 77 150 5.0 23.0 0.00 0.00 0.00 27 998.1
20260504180033 77 190 10.0 23.0 0.00 0.00 0.00 27 998.1
20260504175508 77 289 9.0 18.0 0.00 0.00 0.00 27 998.1
20260504175011 76 192 9.0 25.0 0.00 0.00 0.00 27 998.1
20260504174523 76 247 7.0 25.0 0.00 0.00 0.00 27 998.1
20260504174009 76 163 9.0 25.0 0.00 0.00 0.00 27 998.3
20260504173509 76 134 8.0 22.0 0.00 0.00 0.00 27 998.3
20260504173025 76 186 9.0 21.0 0.00 0.00 0.00 27 998.3
20260504172509 76 263 8.0 19.0 0.00 0.00 0.00 27 998.4
20260504172015 76 213 12.0 22.0 0.00 0.00 0.00 26 998.4
20260504171537 75 247 11.0 23.0 0.00 0.00 0.00 27 998.5
20260504171010 75 236 8.0 23.0 0.00 0.00 0.00 26 998.6
20260504170502 75 254 9.0 22.0 0.00 0.00 0.00 27 998.8
20260504151006 71 186 11.0 21.0 0.00 0.00 0.00 30 1000.4
20260504150503 71 249 8.0 19.0 0.00 0.00 0.00 31 1000.5